Starlink 30558

operational
NORAD ID: 58060 Int'l Des: 2023-158 Owner: SPXS Country: US Constellation: starlink
LEOCIRCULAR

About Starlink 30558

Description loading...

Live Position

Loading 3D Globe...

Upcoming Passes

Altitude History

Altitude vs Time

uPlot chart will show altitude changes over time

Two-Line Element Set

1 58060U 23158K 25260.03065878 .00000077 00000-0 20803-4 0 9991
2 58060 43.0041 254.3518 0001196 271.2696 88.8009 15.02537017107407
Epoch: Sep 17, 2025 • Age: 19 hours

Current Status

Altitude 558.5 km
Velocity 7.58 km/s
Sub-Earth Point 3.43°N, 41.87°W
Launch Date Oct 13, 2023
Age 1.9 years
Type internet

Technical Details

Classification Payload
Mass 730.00 kg
Dry Mass 700.00 kg
Total Mass 730.00 kg
Length 0.30 m
Diameter 4.10 m
Span 29.00 m
Shape Box + pan
Manufacturer SPXS
Bus Type Starlink V2M
Phase Status In Orbit
Owner/State SPXS/US

Large Constellations

Loading constellations...